Regional Weather Roundup
Issued by NWS Columbia, SC

Home | Current Version | Previous Version | Text Only | Print | Product List | Glossary On
Versions: 1 2 3 4 5 6 7 8 9 10 11 12 13 14 15 16 17 18 19 20 21 22 23 24 25 26 27 28 29 30 31 32 33 34 35 36 37 38 39 40 41 42 43 44 45 46 47 48 49
000
ASUS42 KCAE 280010
RWRCAE
REGIONAL WEATHER ROUNDUP
NATIONAL WEATHER SERVICE COLUMBIA SC
800 PM EDT THU AUG 27 2015

NOTE: "FAIR" INDICATES FEW OR NO CLOUDS BELOW 12,000 FEET WITH NO
SIGNIFICANT WEATHER AND/OR OBSTRUCTIONS TO VISIBILITY.

NOT ALL STATIONS ARE QUALITY CONTROLLED BY THE NATIONAL
WEATHER SERVICE. USE DATA WITH CAUTION...ESPECIALLY
DEWPOINT OBSERVATIONS.

SCZ001>056-GAZ040-063>065-077-280100-
...UPSTATE SOUTH CAROLINA...

CITY           SKY/WX    TMP DP  RH WIND       PRES   REMARKS
ANDERSON       CLEAR     79  62  56 NE5       30.03R
6HR MIN TEMP:  79; 6HR MAX TEMP:  85;

LIBERTY        CLEAR     78  63  59 NE3       30.04S
6HR MIN TEMP:  62; 6HR MAX TEMP:  89;

SPARTANBURG    CLEAR     79  61  53 CALM      30.05R
CLEMSON        CLEAR     78  63  59 CALM      30.05S
6HR MIN TEMP:  78; 6HR MAX TEMP:  86;

GREENVILLE     CLEAR     80  59  48 NE8       30.06R
6HR MIN TEMP:  80; 6HR MAX TEMP:  85;

GREENWOOD      CLEAR     77  67  71 CALM      30.04R
6HR MIN TEMP:  77; 6HR MAX TEMP:  86;

GREER          CLEAR     78  61  55 NE6       30.04R
6HR MIN TEMP:  78; 6HR MAX TEMP:  86;

ROCK HILL      CLEAR     79  62  56 VRB3      30.05S
6HR MIN TEMP:  79; 6HR MAX TEMP:  86;

CHESTER        PTCLDY    81  59  47 NE5       30.05R
LAURENS        PTCLDY    79  70  73 NE3       30.03S


...CENTRAL SOUTH CAROLINA...

CITY           SKY/WX    TMP DP  RH WIND       PRES   REMARKS
COLUMBIA APT   PTCLDY    84  64  50 E12       30.00R
6HR MIN TEMP:  84; 6HR MAX TEMP:  90;

COLUMBIA OWENS PTCLDY    83  67  58 E3        30.02R
6HR MIN TEMP:  83; 6HR MAX TEMP:  89;

DARLINGTON     CLEAR     77  64  65 NE8       30.06R
6HR MIN TEMP:  77; 6HR MAX TEMP:  84;

FLORENCE       PTCLDY    77  69  76 NE8       30.04R
6HR MIN TEMP:  77; 6HR MAX TEMP:  85;

MCENTIRE ANGB  MOCLDY    80  69  70 E5        30.03R
6HR MIN TEMP:  80; 6HR MAX TEMP:  86;

ORANGEBURG     PTCLDY    80  69  69 E6        30.02R
6HR MIN TEMP:  80; 6HR MAX TEMP:  88;

SUMTER SHAW    PTCLDY    79  68  67 E8        30.01R
6HR MIN TEMP:  79; 6HR MAX TEMP:  87;

NEWBERRY       PTCLDY    77  68  73 NE7       30.05S
AIKEN          FAIR      81  61  50 E5        30.04R
BARNWELL       FAIR      82  72  69 E6        30.01R
MANNING        FAIR      77  68  73 CALM      30.02R
CAMDEN         FAIR      79  68  69 E8        30.04R
LANCASTER      PTCLDY    79  64  61 NE6       30.05R
WINNSBORO      PTCLDY    81  64  57 NE6       30.03R


...EASTERN AND COASTAL SOUTH CAROLINA...

CITY           SKY/WX    TMP DP  RH WIND       PRES   REMARKS
MYRTLE BEACH   MOCLDY    77  70  78 NE8         N/A
N MYRTLE BCH   CLOUDY    75  73  93 NE7       30.02R
6HR MIN TEMP:  74; 6HR MAX TEMP:  83; 6HR PCP:  1.50;

CONWAY         FAIR      77  72  83 NE6       30.03R
MARION         FAIR      75  68  78 CALM      30.04R
HARTSVILLE     FAIR      77  63  61 NE8       30.04R
FLORENCE       PTCLDY    77  69  76 NE8       30.04R
6HR MIN TEMP:  77; 6HR MAX TEMP:  85;

DARLINGTON     CLEAR     77  64  65 NE8       30.06R
6HR MIN TEMP:  77; 6HR MAX TEMP:  84;

CHARLESTON APT MOCLDY    75  71  87 NE6       30.02R
6HR MIN TEMP:  75; 6HR MAX TEMP:  84; 6HR PCP:  0.07;

MOUNT PLEASANT RAIN      73  73 100 N5        30.00S
BEAUFORT       MOCLDY    80  73  79 E6        29.99R
6HR MIN TEMP:  71; 6HR MAX TEMP:  83;



...EASTERN GEORGIA...

CITY           SKY/WX    TMP DP  RH WIND       PRES   REMARKS
AUGUSTA BUSH F FAIR      80  71  74 E3        29.98R
6HR MIN TEMP:  80; 6HR MAX TEMP:  88;

AUGUSTA DANIEL FAIR      84  64  50 NE6       30.00R
6HR MIN TEMP:  84; 6HR MAX TEMP:  89;

THOMSON        FAIR      81  72  73 N3        30.05R
6HR MIN TEMP:  81; 6HR MAX TEMP:  88;

WASHINGTON     FAIR      81  73  78 N3        30.02R
SYLVANIA       FAIR      80  75  85 E6        30.00R
6HR MIN TEMP:  80; 6HR MAX TEMP:  87;

STATESBORO     FAIR      80  76  87 E5        29.98S
SAVANNAH       MOCLDY    78  73  84 E7        29.98R
6HR MIN TEMP:  74; 6HR MAX TEMP:  85; 6HR PCP: TRACE;



...SOUTHERN NORTH CAROLINA...

CITY           SKY/WX    TMP DP  RH WIND       PRES   REMARKS
CHARLOTTE      PTCLDY    80  58  46 NE7       30.05S
6HR MIN TEMP:  80; 6HR MAX TEMP:  86;

MONROE         MOCLDY    79  63  57 E5        30.05R
6HR MIN TEMP:  79; 6HR MAX TEMP:  84;

WADESBORO      CLEAR     79  60  52 E3        30.05R
6HR MIN TEMP:  79; 6HR MAX TEMP:  86;

ROCKINGHAM     CLEAR     76  62  62 E6        30.05R
6HR MIN TEMP:  76; 6HR MAX TEMP:  84;

RUTHERFORDTON  CLEAR     77  60  56 NE3       30.08R
6HR MIN TEMP:  77; 6HR MAX TEMP:  83;

ASHEVILLE      CLEAR     74  56  53 SE3       30.12R
6HR MIN TEMP:  74; 6HR MAX TEMP:  80;


$$


USA.gov is the U.S. government's official web portal to all federal, state and local government web resources and services.